Location: São Paulo
(23.5507°S, 46.6334°W)
Time: 10:55:55
(UTC-03:00)

Transit 4A - Pass Details

Date: 20 February 2026
Orbit: 864 x 977 km, 66.8° (Epoch: 11 March)

Event Time Altitude Azimuth Distance (km) Brightness Sun altitude
Enters shadow 00:47:54 - 199° (SSW) 3,512 11.4 -54.9°
Rises 00:47:56 0° 199° (SSW) 3,501 - -54.9°
Reaches altitude 10° 00:50:29 10° 196° (SSW) 2,544 - -54.7°
Maximum altitude 00:56:18 65° 114° (ESE) 955 - -54.4°
Drops below altitude 10° 01:02:00 10° 32° (NNE) 2,496 - -54.0°
Sets 01:04:29 0° 29° (NNE) 3,429 - -53.9°
